Hourly Data Report for September 05, 2017

All times are specified in Local Standard Time (LST). Add 1 hour to adjust for Daylight Saving Time where and when it is observed.

KITCHENER/WATERLOO
ONTARIO

43°27'39.000" N
80°22'43.000" W
321.60 m
6144239
71368
YKF

Download Data

Hourly Data (September 2017)
Hourly Data Report for September 5, 2017
Temp Definition
°C
Dew Point Temp Definition
°C
Rel Hum Definition
%
Wind Dir Definition
10's deg

Wind Spd Definition
km/h
Visibility Definition
km
Stn Press Definition
kPa
Hmdx Definition


Wind Chill Definition


Weather Definition


TIME
00:00 Legend Double Dagger 14.3 13.4 94 30 13 16.1 96.75     LegendNANA
01:00 Legend Double Dagger 14.0 13.2 95 28 11 16.1 96.81     LegendNANA
02:00 Legend Double Dagger 13.2 12.6 96 26 8 16.1 96.82     LegendNANA
03:00 Legend Double Dagger 11.7 11.4 98 27 8 1.2 96.78     Fog
04:00 Legend Double Dagger 12.5 12.2 98 30 9 11.3 96.82     LegendNANA
05:00 Legend Double Dagger 12.3 12.0 98 29 4 2.4 96.85     Fog
06:00 Legend Double Dagger 10.5 10.4 99   0 0.2 96.92     Fog
07:00 Legend Double Dagger 11.1 11.0 99 14 8 4.0 96.92     Fog
08:00 Legend Double Dagger 12.8 12.7 99 24 8 2.0 96.94     Fog
09:00 Legend Double Dagger 14.1 14.0 99 18 13 16.1 96.92     LegendNANA
10:00 Legend Double Dagger 17.0 14.1 83 21 15 16.1 96.89     LegendNANA
11:00 Legend Double Dagger 18.3 13.5 73 23 15 16.1 96.89     LegendNANA
12:00 Legend Double Dagger 18.3 12.6 69 27 22 16.1 96.87     LegendNANA
13:00 Legend Double Dagger 19.7 12.4 62 25 22 16.1 96.88     LegendNANA
14:00 Legend Double Dagger 19.0 13.6 71 28 18 16.1 96.90     LegendNANA
15:00 Legend Double Dagger 19.3 11.2 59 27 22 16.1 96.92     LegendNANA
16:00 Legend Double Dagger 18.9 10.3 57 28 21 9.7 96.94     Haze
17:00 Legend Double Dagger 18.3 11.7 65 32 21 16.1 97.00     LegendNANA
18:00 Legend Double Dagger 16.4 11.2 71 31 13 16.1 97.04     LegendNANA
19:00 Legend Double Dagger 13.9 10.6 80 32 8 16.1 97.10     LegendNANA
20:00 Legend Double Dagger 11.5 10.6 94 31 4 16.1 97.20     LegendNANA
21:00 Legend Double Dagger 12.7 10.1 84 30 8 16.1 97.23     LegendNANA
22:00 Legend Double Dagger 10.3 9.4 94 32 8 16.1 97.25     LegendNANA
23:00 Legend Double Dagger 10.7 9.8 94   0 16.1 97.25     LegendNANA

Notes on Data Quality.

Legend

  • E = Estimated
  • M = Missing
  • NA = Not Available
  • ‡ = Partner data that is not subject to review by the National Climate Archives
Date modified: